Theta_e
331 332 333 333 334 334 334 333 332 332 332 332 330 331 331 330 330 330 331 330 328 328 329 328 329 328 328 328 328 329 327 329 331 332 332 331 330 328 326 324 324 325 328 329 329 329 328 328 327 327 326 326 326 325 325 326 328 325 322 322 320 315 311 307 304 303 303 304 306 310 313 314 313 313 314 316 318 318 318 318 319 318 318 318 318
332 332 333 333 334 335 334 333 332 331 332 332 331 331 331 331 331 331 330 330 329 329 329 328 328 328 328 328 328 328 327 327 330 331 332 331 329 328 326 324 324 325 326 328 329 329 329 327 327 327 326 326 325 325 325 325 326 327 326 327 326 322 317 312 308 303 303 303 302 306 312 313 311 310 311 314 316 316 317 318 318 317 318 318 318
333 334 333 334 334 334 334 333 332 331 331 331 331 331 331 331 330 330 329 329 330 329 329 327 326 327 328 328 328 327 327 327 329 331 332 331 330 328 326 325 324 324 326 327 327 328 329 328 327 327 326 326 326 325 324 324 325 325 327 328 327 326 323 319 313 308 304 302 302 304 306 308 310 308 308 311 312 311 314 317 317 317 317 317 317
334 335 334 333 334 334 334 333 332 332 331 331 331 331 331 331 330 330 329 328 330 329 328 326 325 326 328 328 328 327 327 327 329 330 331 331 330 328 327 326 324 325 326 327 326 327 329 329 328 327 327 326 326 326 324 324 324 324 326 328 328 327 325 322 317 313 308 304 303 302 303 305 307 306 306 307 310 311 312 314 317 317 317 317 317
334 334 334 333 334 334 334 333 333 332 332 332 331 331 331 331 331 330 329 328 329 330 329 326 324 325 327 327 328 328 327 327 327 329 330 331 330 329 327 326 325 325 326 327 326 326 329 330 329 328 326 325 326 326 325 325 325 324 325 326 328 327 325 323 319 317 314 309 305 302 303 305 303 304 306 306 310 313 310 310 314 317 317 317 317
334 334 334 334 333 333 333 333 332 332 332 332 331 331 331 331 331 330 328 329 329 329 328 326 324 325 326 326 327 327 327 327 326 326 328 330 331 329 328 327 327 326 325 326 326 326 328 330 330 329 328 327 326 325 325 326 325 324 324 325 326 326 326 324 322 320 318 314 310 305 304 306 304 303 303 303 305 308 307 307 311 315 317 317 317
333 334 333 333 333 332 333 332 331 332 332 332 331 331 331 330 330 330 329 329 329 328 328 326 325 325 326 326 326 327 327 326 326 326 326 328 330 330 329 329 327 327 326 326 326 326 327 327 329 330 329 328 327 325 324 325 325 324 325 326 325 324 324 326 325 322 321 318 315 310 306 307 305 302 300 300 301 301 304 306 307 312 315 316 316
333 333 333 332 332 332 332 331 330 331 330 331 331 331 331 330 330 329 329 329 328 328 328 326 325 325 327 327 327 327 327 327 327 326 326 328 329 330 330 330 329 328 328 327 326 326 327 327 327 329 330 329 328 326 326 326 326 324 323 325 326 324 323 325 326 325 323 320 317 315 313 311 307 304 300 299 299 299 301 303 303 307 310 313 315
332 333 332 332 332 332 331 330 330 330 330 331 332 331 331 331 330 330 329 329 328 326 325 324 325 326 327 328 327 327 327 327 327 327 327 328 330 330 330 330 330 330 330 328 328 327 327 327 327 328 329 329 329 328 328 328 328 327 324 324 325 325 323 323 325 326 325 322 319 317 318 318 313 307 303 300 299 299 299 300 300 302 303 307 312
332 332 332 332 332 332 331 330 331 330 331 331 332 332 331 331 330 329 328 327 326 325 323 323 324 327 328 328 328 328 328 327 327 327 328 329 330 330 330 330 330 330 331 330 329 327 327 328 327 327 328 328 329 329 329 329 330 330 328 327 326 326 324 322 323 326 327 325 322 321 321 320 318 312 307 302 300 299 299 299 298 299 300 301 306
331 331 331 331 331 331 331 331 331 331 331 330 331 332 331 330 328 327 327 326 325 325 324 323 324 326 327 328 327 327 328 327 328 328 328 329 329 329 330 330 330 330 331 330 329 328 328 328 327 327 328 327 328 328 329 329 330 331 330 330 328 327 327 324 321 323 326 327 325 324 323 320 319 316 311 306 302 300 300 300 298 298 299 299 301
330 330 330 330 331 330 330 330 330 330 330 330 330 331 331 330 327 326 328 326 326 326 326 326 325 326 326 328 328 327 327 327 327 328 328 328 328 328 329 329 329 329 330 330 329 328 328 328 328 328 328 327 328 328 328 328 328 329 330 331 330 329 328 327 325 322 323 326 326 326 325 323 322 318 314 310 307 303 301 301 300 298 298 298 299
329 329 329 329 330 330 329 330 330 330 330 330 329 330 330 329 328 328 328 327 326 326 327 328 327 327 327 327 326 326 327 327 327 327 328 328 327 327 328 328 328 328 329 329 329 329 328 328 327 327 328 327 327 328 328 328 328 328 328 329 330 331 330 329 328 325 322 323 325 327 326 325 325 321 317 313 312 309 306 304 302 300 298 297 298
328 328 328 328 329 329 329 329 330 330 330 330 330 330 330 329 328 328 329 328 327 327 328 328 328 328 328 327 326 326 326 327 326 326 326 326 327 327 327 327 327 327 328 329 329 329 329 329 328 328 328 327 327 327 328 328 328 328 328 328 328 329 331 331 330 329 326 321 322 326 326 325 326 325 321 316 314 313 312 310 308 306 302 299 298
327 327 327 327 328 328 328 329 329 329 329 329 330 330 330 328 328 329 328 328 327 327 328 329 328 328 327 328 328 327 328 327 327 326 325 325 325 326 326 326 326 326 326 327 327 328 328 329 329 328 328 329 328 328 328 327 328 328 328 328 328 328 329 332 331 330 329 324 321 324 326 325 325 325 324 320 317 316 316 315 314 312 309 305 301
325 325 325 325 326 326 327 328 328 328 327 328 329 329 329 329 329 329 327 328 328 328 328 328 328 328 327 326 325 326 329 327 325 327 326 325 324 325 325 324 324 324 324 325 326 326 327 327 328 327 328 329 329 329 329 329 328 329 329 329 329 328 329 330 331 331 331 329 324 322 324 324 323 323 323 322 320 319 320 319 318 317 316 313 308
322 322 323 323 324 325 326 326 327 328 328 328 329 328 328 328 328 329 328 328 329 328 327 327 328 328 327 327 326 330 332 327 324 327 327 326 325 324 324 323 323 323 323 324 325 325 326 326 326 326 327 327 327 328 328 328 329 329 329 329 329 329 328 328 329 329 331 331 329 325 324 324 324 323 322 321 320 320 321 321 321 321 320 318 316
320 321 322 321 323 324 326 327 327 328 328 327 327 327 327 327 327 328 328 327 328 327 327 326 326 326 326 327 328 329 330 326 326 327 327 326 327 327 326 325 326 325 324 324 324 325 325 326 325 325 325 325 325 326 327 327 328 328 328 328 328 328 328 328 328 328 329 330 331 330 328 327 327 326 324 322 320 319 319 320 321 322 322 321 321
320 321 322 322 323 324 325 326 327 326 326 325 325 326 326 326 326 326 327 326 326 326 326 325 325 325 326 327 326 327 326 326 327 327 328 326 324 323 322 323 325 325 325 325 325 324 323 323 323 324 325 325 325 326 326 327 327 327 327 327 327 327 327 328 328 328 328 329 330 331 330 330 329 329 328 326 323 321 320 320 320 321 321 321 321
319 320 322 323 323 323 324 325 324 324 324 324 324 324 325 326 326 325 326 326 327 327 326 325 324 325 326 326 327 326 325 326 325 325 328 327 322 318 316 317 320 322 324 326 326 325 323 323 323 324 324 325 326 326 326 327 327 327 327 327 326 326 326 327 328 328 329 328 329 329 329 331 330 329 329 329 328 325 323 322 322 322 322 321 321
319 319 322 323 322 322 323 324 323 323 323 322 322 323 324 325 326 326 326 326 327 326 326 324 324 325 325 325 325 323 322 323 323 322 325 327 324 321 316 313 315 318 321 325 326 326 326 326 325 325 325 326 326 325 324 324 325 326 327 327 326 326 326 326 327 328 328 328 328 328 328 329 330 330 330 330 329 328 327 325 324 324 324 324 323
319 320 321 322 321 321 322 323 323 323 322 321 321 321 322 324 324 324 324 324 323 324 323 323 324 325 325 324 323 321 319 319 320 320 319 320 321 319 314 313 313 313 314 317 320 322 323 325 325 324 325 326 325 324 323 323 325 326 327 327 326 326 327 326 327 328 328 328 328 328 328 328 328 329 330 330 329 329 329 328 326 326 326 326 326
318 320 321 319 318 318 319 321 322 322 321 320 319 317 319 322 321 318 318 318 319 320 321 323 324 323 322 320 320 319 318 316 316 316 315 316 320 319 314 313 313 311 310 310 310 313 316 319 322 324 326 326 324 325 325 325 326 327 327 327 326 326 327 326 327 327 327 328 328 328 329 328 328 328 329 329 330 329 329 329 329 329 329 328 328
317 317 316 315 314 313 314 317 319 319 318 317 316 316 318 319 317 316 316 316 316 317 317 319 320 318 315 314 315 314 314 313 313 313 313 315 318 317 314 313 313 312 311 309 308 308 310 313 316 319 320 318 318 319 321 322 324 326 326 324 322 323 324 322 322 324 325 326 326 327 328 328 328 329 329 329 329 329 329 329 329 329 329 329 328
315 315 314 314 313 310 309 311 313 313 312 312 314 316 318 317 316 316 315 315 315 315 314 314 314 313 312 312 312 312 311 312 312 312 311 311 313 313 312 312 312 312 311 310 310 309 309 309 310 312 312 311 310 311 312 314 316 319 319 317 314 314 316 317 318 319 320 320 321 324 326 326 326 326 328 328 328 328 328 329 329 329 329 328 328
315 315 314 315 313 310 308 308 307 307 307 307 309 313 316 317 317 316 314 314 314 313 312 311 311 311 311 310 309 310 310 311 311 310 309 309 309 311 311 311 311 311 310 310 309 309 309 308 307 308 308 309 309 309 309 309 310 311 312 311 310 310 310 311 313 314 315 315 316 318 321 323 324 325 325 326 326 325 325 326 327 327 327 327 327
314 315 315 315 313 311 310 308 307 305 305 305 305 307 310 312 314 314 313 313 312 312 311 310 309 309 308 306 306 308 310 310 310 310 309 308 308 309 310 312 312 310 309 309 309 308 308 307 307 306 306 306 307 307 308 309 308 309 310 310 310 310 310 309 310 310 311 312 313 314 314 316 318 320 322 323 323 323 322 322 323 324 324 324 325
313 314 314 314 313 312 311 311 310 308 305 304 303 304 305 306 308 310 311 312 311 310 310 307 306 306 306 304 304 307 309 309 309 308 308 308 308 308 307 310 311 312 312 312 309 308 308 307 306 305 304 303 304 304 306 307 307 308 309 309 309 309 309 309 309 309 309 310 310 311 311 312 312 313 314 316 316 317 318 318 319 320 320 320 321
312 312 313 314 314 313 313 312 313 312 308 305 304 304 304 303 306 308 310 311 310 310 308 305 303 305 306 305 306 308 309 308 308 308 309 309 309 309 308 307 308 314 318 315 310 308 308 306 305 304 303 301 302 303 304 306 306 307 307 308 308 308 308 308 308 308 309 309 309 309 310 310 310 310 310 311 311 312 313 314 315 315 316 317 317
310 310 312 313 313 314 313 313 313 314 313 309 307 307 305 304 305 307 310 311 311 311 309 305 305 306 307 307 308 308 309 309 309 309 309 309 310 310 310 309 307 309 313 313 310 308 307 306 305 303 301 300 300 302 304 305 305 305 306 306 306 307 308 308 308 308 308 308 309 309 309 309 309 310 310 310 310 310 310 311 312 313 314 314 315
309 309 310 311 311 312 313 312 312 313 314 312 309 308 308 307 306 307 309 310 310 311 310 307 307 307 308 308 309 308 309 309 308 309 309 309 310 309 309 309 307 306 307 309 310 308 306 305 303 301 299 298 298 299 301 303 304 304 305 305 306 306 306 307 307 307 308 307 308 308 308 308 308 309 309 309 309 309 309 309 310 311 312 314 314
309 309 309 310 309 309 310 310 311 312 313 313 311 310 310 309 308 308 308 308 308 309 310 308 307 307 307 307 307 307 308 308 308 308 308 308 309 308 307 307 307 306 305 305 307 307 305 304 301 298 296 296 296 297 297 299 300 301 302 303 304 305 306 306 305 306 306 306 307 307 307 307 307 307 308 308 308 308 308 309 309 310 310 312 314
313 311 310 311 311 311 311 310 310 311 312 313 312 312 311 311 311 310 308 308 307 306 308 309 308 308 307 305 305 305 306 307 308 308 307 308 307 307 307 306 304 304 303 303 305 305 305 303 299 295 295 295 296 296 296 297 297 297 298 299 300 302 303 303 304 304 304 304 305 305 306 306 306 306 306 306 307 307 307 308 308 308 309 310 312
316 315 313 313 313 313 314 312 311 311 311 312 312 312 312 312 312 311 310 309 308 307 308 307 307 308 308 307 307 306 305 306 307 307 307 307 307 307 306 304 301 300 299 300 302 302 301 300 296 294 295 296 296 296 296 297 297 296 297 297 297 298 299 299 300 301 301 302 302 302 303 304 305 305 306 306 306 306 306 306 306 307 308 308 309
317 317 316 315 314 313 314 314 313 311 310 311 312 312 312 312 312 312 311 311 310 310 310 309 307 308 308 308 308 307 307 305 305 306 307 307 307 306 304 301 298 297 296 296 297 297 297 297 295 294 296 296 296 296 296 296 296 296 297 297 297 297 297 297 297 297 298 298 299 299 299 300 301 301 302 303 304 305 305 305 305 305 306 306 307
318 318 318 317 316 316 315 315 315 314 313 312 312 312 312 313 313 312 312 312 312 311 311 310 310 309 309 308 308 308 308 307 305 305 307 307 306 305 303 299 297 296 295 295 295 294 294 295 295 295 296 296 296 296 296 296 296 296 296 296 296 296 296 296 296 296 296 296 297 297 297 297 298 298 299 300 300 302 303 304 304 305 305 305 305
319 319 319 318 317 317 317 317 317 317 316 315 314 313 313 313 313 312 312 313 312 312 311 311 311 311 310 309 309 308 308 308 306 306 305 306 306 305 302 299 298 297 296 295 295 295 295 295 296 296 297 297 297 296 297 296 296 296 296 296 296 295 295 295 295 295 296 296 296 296 296 297 297 297 297 297 298 298 299 300 301 302 304 304 304
319 318 319 319 318 317 317 317 318 318 318 317 316 315 314 314 314 315 314 314 314 313 312 312 312 312 312 311 310 310 309 308 308 307 306 306 305 304 302 300 299 298 297 296 295 295 296 296 297 297 297 297 297 297 297 297 296 296 296 296 296 295 295 295 295 295 295 296 295 296 296 296 296 296 296 296 297 297 297 298 298 299 300 301 302
318 317 317 318 319 318 317 317 317 318 318 318 317 316 315 315 315 316 317 316 316 315 314 313 312 312 312 312 311 311 310 310 309 308 307 306 305 304 303 301 300 299 298 297 297 297 297 297 297 297 297 297 297 297 297 297 297 296 296 296 296 295 295 295 295 295 295 295 295 295 295 295 295 295 295 295 296 296 297 297 297 297 298 298 299
318 318 318 319 319 318 317 317 318 317 317 317 317 317 316 316 316 318 318 318 317 317 316 315 314 313 313 313 312 312 311 311 310 309 308 307 305 304 303 302 301 299 298 298 297 298 298 298 298 298 298 298 298 297 297 297 297 296 296 296 296 295 295 295 295 295 295 295 295 295 295 294 295 295 295 295 295 295 296 296 296 297 297 297 298
318 317 318 317 317 316 316 318 318 317 317 318 318 318 318 317 317 318 318 318 317 317 317 317 315 314 314 314 313 312 312 311 310 310 309 307 306 305 303 303 302 300 299 298 298 298 298 298 299 299 299 299 298 297 297 297 297 296 296 296 295 295 295 295 295 294 294 294 294 294 294 294 294 294 294 294 294 294 295 295 296 296 297 297 297
318 317 317 317 316 316 317 318 318 318 317 318 319 319 318 318 318 318 317 317 317 317 317 317 317 316 315 315 314 313 312 311 310 310 309 308 307 305 303 303 302 300 299 298 298 299 299 299 299 299 299 298 298 297 297 297 297 296 296 295 295 295 294 295 294 294 294 294 293 293 294 293 293 294 294 293 293 293 294 294 295 296 297 298 298
319 319 319 319 318 318 318 318 318 319 319 319 319 319 319 319 319 319 318 318 318 318 318 317 317 317 316 315 314 314 313 311 310 310 309 308 307 304 303 304 303 301 299 299 299 299 299 299 299 299 298 298 298 297 297 297 297 296 296 295 295 295 294 293 294 294 293 293 292 292 293 293 293 293 293 293 293 293 294 294 295 296 298 298 298
319 319 318 318 319 318 318 318 319 319 319 319 319 320 320 319 319 319 319 319 319 319 318 318 318 317 317 316 314 314 314 312 310 310 309 308 306 304 304 304 303 301 300 300 300 300 300 300 299 298 298 297 297 297 297 297 297 296 296 295 295 294 293 292 292 292 293 292 291 291 292 293 292 292 293 293 293 294 294 294 294 295 296 297 298
316 315 316 317 318 318 318 318 318 318 319 319 320 320 319 319 319 319 319 319 319 319 318 318 318 318 317 317 316 315 315 312 310 310 309 306 304 304 305 304 302 301 300 300 300 300 300 300 299 298 298 297 297 297 297 297 296 296 295 294 293 292 292 292 291 291 292 292 291 291 292 292 292 292 293 293 293 293 294 294 294 295 295 296 297
312 313 313 314 314 315 316 316 317 317 318 319 319 319 319 318 316 315 315 316 316 317 317 317 318 318 317 317 317 316 315 312 309 309 308 305 304 305 305 303 302 301 300 300 300 300 300 299 299 298 297 297 297 296 296 296 295 294 293 293 292 292 291 291 291 291 292 292 291 291 291 293 293 292 292 293 293 293 293 294 294 295 295 296 296
308 308 308 309 309 310 311 313 314 315 316 317 318 318 317 316 315 313 313 313 314 315 316 316 316 317 317 317 316 315 314 311 309 308 306 305 305 305 304 303 301 301 300 300 300 299 299 299 298 297 297 296 296 295 295 294 293 293 292 292 292 292 291 291 291 292 292 292 292 291 291 292 292 292 292 292 292 293 293 293 294 295 295 296 296
306 306 306 306 306 306 307 309 310 312 314 315 316 317 317 315 315 313 312 312 312 313 314 314 315 315 316 315 314 312 311 309 307 306 305 305 305 305 303 302 301 300 300 300 299 299 298 298 297 297 296 295 294 294 293 293 292 292 292 292 292 292 291 291 291 291 292 292 292 292 291 292 292 292 292 292 292 293 293 293 294 295 295 296 296
304 304 303 303 304 304 304 304 305 307 309 312 314 316 316 316 315 314 313 312 311 312 313 313 313 312 312 311 310 310 309 307 305 304 305 305 305 304 303 301 300 300 299 299 298 297 297 296 296 295 295 294 293 292 292 292 292 292 292 292 292 292 291 291 291 291 291 291 292 292 292 291 291 291 292 292 292 292 292 293 295 295 295 295 295
304 304 303 303 303 304 303 303 303 303 304 307 310 313 315 316 315 314 313 312 311 311 311 311 311 310 309 308 307 307 306 305 304 304 304 304 303 302 301 300 300 299 299 298 297 296 295 295 294 294 293 293 292 292 292 292 292 292 292 292 292 292 291 291 291 291 291 291 291 291 291 291 291 291 292 292 292 292 292 293 295 295 294 294 294
305 305 304 304 305 305 305 304 303 302 303 305 307 311 314 315 314 313 312 312 311 311 310 310 308 307 306 306 305 304 304 303 303 303 302 302 302 301 301 300 300 299 297 296 295 295 294 294 293 293 293 292 292 292 292 292 291 291 291 291 291 291 291 291 291 291 291 291 291 291 291 291 291 291 292 292 292 292 292 293 293 293 293 293 293
Wind_Speed
6 5 5 4 5 5 6 6 6 6 6 6 5 5 4 4 3 2 2 1 1 2 3 2 2 3 3 3 4 4 4 2 4 5 6 7 6 6 5 5 4 4 4 4 5 5 6 6 6 6 6 7 7 7 6 4 3 1 1 1 3 3 3 3 3 4 4 4 5 5 6 7 7 8 8 8 9 8 9 10 10 10 11 12 12
6 6 5 5 6 5 5 5 5 6 5 5 4 4 4 3 3 3 2 1 1 1 1 2 2 3 4 3 3 3 3 2 3 4 6 7 7 7 6 5 5 4 4 4 4 5 5 6 6 6 6 6 6 6 6 5 4 3 2 1 1 2 2 3 3 3 3 3 3 4 5 5 6 6 7 7 7 7 8 9 9 9 11 11 11
5 5 5 5 5 5 4 4 4 4 3 3 4 4 4 4 3 3 2 1 1 1 1 1 2 2 3 3 2 2 2 2 4 4 5 7 8 9 8 6 5 5 5 4 3 4 5 6 6 6 6 6 6 5 6 6 5 4 4 3 1 2 2 2 2 3 2 2 2 3 4 4 5 5 6 7 6 7 8 8 8 8 9 10 10
6 6 5 5 5 5 4 4 3 3 3 3 4 5 5 5 4 4 3 2 1 1 1 2 4 3 1 2 2 2 1 0 3 4 5 7 9 9 8 6 6 6 6 5 4 4 5 5 5 6 7 7 6 5 5 6 5 4 4 4 3 1 2 2 1 2 3 2 2 2 3 3 3 4 5 6 6 6 6 7 8 8 8 8 9
7 6 5 4 4 5 5 5 5 4 4 4 6 6 6 6 6 5 4 3 2 2 0 3 4 4 2 1 2 2 2 2 2 4 5 7 8 8 8 7 6 6 7 6 5 5 6 6 5 5 5 5 6 7 6 5 5 5 4 4 4 2 2 2 1 2 3 3 2 1 1 2 2 3 4 4 5 5 6 6 7 7 7 7 8
6 5 5 5 5 6 6 6 5 5 5 6 7 8 7 7 7 6 5 4 3 2 0 2 3 3 1 0 1 2 2 3 4 4 5 6 8 8 8 8 7 6 6 6 6 6 6 8 6 5 4 3 5 7 7 6 6 6 5 4 3 3 3 1 1 2 3 3 3 2 1 0 1 2 2 3 3 4 5 6 6 6 6 6 7
6 6 6 6 6 7 6 5 4 6 7 8 8 8 8 7 7 7 6 5 4 3 1 2 2 1 1 1 2 3 3 4 4 6 7 7 7 9 9 9 8 7 6 6 6 6 6 7 7 7 6 3 3 5 6 6 6 6 6 5 4 4 5 4 2 2 3 3 3 2 2 2 1 1 2 2 2 3 4 5 5 5 5 5 6
4 5 6 6 7 6 6 6 6 7 8 9 9 9 9 8 9 8 7 6 4 3 2 2 2 1 1 2 2 3 3 4 4 6 8 9 9 10 10 9 9 8 8 6 6 6 5 6 7 8 8 6 3 3 5 5 4 4 6 7 5 5 6 6 5 4 2 3 3 3 3 3 3 1 1 2 2 2 3 3 4 4 4 5 5
3 5 5 5 7 6 6 7 7 9 11 9 9 9 8 8 9 9 8 6 5 3 2 2 3 3 3 2 2 3 4 5 5 6 8 10 11 11 11 11 10 10 9 8 8 7 6 6 6 7 8 7 6 3 3 5 4 3 3 5 5 6 6 7 7 6 4 3 3 3 3 4 4 3 1 1 2 2 3 3 3 3 3 4 4
4 4 4 5 6 7 7 8 9 11 11 8 7 8 6 7 9 9 8 6 5 4 3 3 4 4 4 4 4 4 4 5 5 6 8 10 12 12 13 13 12 12 11 11 11 9 8 7 7 7 7 7 7 5 4 5 5 6 5 4 4 5 6 6 8 8 7 6 5 4 3 4 4 4 3 1 2 2 2 3 3 3 3 4 4
3 2 2 3 4 5 6 8 10 11 10 7 6 7 6 7 7 7 8 7 6 5 3 4 5 5 4 4 5 5 5 5 4 4 5 7 9 10 12 13 14 14 13 13 13 12 10 10 8 8 7 7 7 6 5 5 6 7 7 6 5 5 6 6 7 8 9 8 7 6 4 3 3 4 4 3 2 2 2 3 3 3 3 4 4
1 0 1 1 2 3 4 7 9 9 8 7 5 5 5 5 6 7 9 8 7 5 4 4 4 5 4 4 5 5 6 5 5 5 6 5 5 6 7 9 11 13 15 15 15 15 13 12 11 10 9 8 8 7 7 6 7 7 7 7 7 7 8 8 7 6 9 10 9 8 7 4 3 4 5 4 3 2 2 3 2 3 3 3 4
4 3 3 2 3 4 3 5 6 6 5 3 3 2 3 5 8 10 9 8 6 5 5 6 5 4 4 3 4 5 6 6 6 6 6 6 6 5 4 4 4 6 10 11 12 14 15 14 14 13 11 11 11 10 10 9 8 8 8 8 8 8 9 10 9 6 7 11 11 10 10 7 4 4 5 5 4 3 3 3 3 3 3 3 4
6 6 5 5 5 4 3 3 4 4 4 3 3 3 3 6 9 10 8 7 6 7 7 5 5 5 4 3 2 3 4 5 6 7 8 8 8 8 6 4 2 4 5 5 7 10 12 13 14 15 14 13 13 13 13 13 12 11 10 9 8 9 9 10 11 8 5 8 12 12 11 10 8 6 5 6 6 5 4 4 4 3 3 3 3
6 6 6 5 5 4 3 2 3 3 3 3 2 3 3 4 7 8 8 7 6 8 8 6 5 6 4 2 1 1 2 3 4 6 8 9 10 10 8 6 6 6 6 3 3 6 8 10 11 13 14 13 13 14 15 15 16 15 14 13 11 10 11 10 11 11 9 7 9 12 12 11 10 9 8 7 7 7 6 6 5 5 4 4 3
5 6 5 5 4 4 3 2 3 3 3 1 1 2 2 3 4 6 7 7 6 7 8 7 7 7 4 1 1 1 1 2 2 4 7 9 9 9 8 7 6 7 6 5 5 6 6 6 7 11 10 8 10 11 12 14 15 16 16 16 16 14 14 14 12 13 12 10 8 10 11 10 9 9 10 9 8 8 8 7 7 6 6 5 5
4 4 5 4 3 3 1 1 2 3 3 2 2 2 2 4 5 5 5 6 6 5 6 6 7 7 5 3 2 0 1 1 0 1 4 6 6 7 8 7 5 5 7 7 8 6 6 6 7 9 7 5 8 9 10 11 12 13 14 15 15 16 16 16 16 15 14 13 12 11 12 11 10 10 10 10 10 9 9 9 9 8 7 7 6
3 2 3 3 3 4 2 2 3 4 3 3 2 2 3 4 4 4 3 3 3 3 4 5 4 3 4 4 2 2 3 3 1 1 2 2 2 2 3 4 3 4 6 6 6 6 7 9 9 9 7 7 9 10 10 10 11 12 12 12 12 13 14 15 16 16 15 16 16 15 15 14 12 11 11 11 11 11 10 10 11 10 9 8 8
4 3 3 3 3 4 4 3 5 5 5 4 4 3 2 3 4 5 3 2 1 2 3 4 3 2 3 3 3 3 5 4 2 1 2 4 6 7 7 5 0 3 5 6 6 6 6 7 9 9 8 8 9 9 9 10 12 12 12 11 10 10 11 12 12 12 14 17 18 18 17 17 16 15 13 13 12 12 12 11 11 11 11 11 11
4 3 3 4 4 4 4 6 7 7 6 6 6 6 4 3 3 5 4 3 2 2 3 3 3 3 5 4 2 3 5 4 2 2 2 3 5 8 11 13 11 6 2 4 5 5 3 3 4 5 5 6 6 6 6 7 9 10 11 10 9 9 9 9 9 9 9 12 17 19 19 17 19 19 17 16 16 14 13 13 12 12 12 12 12
4 2 3 4 4 4 4 5 6 6 6 6 6 6 6 5 4 5 5 5 4 3 3 3 3 2 5 5 4 6 6 7 6 5 4 4 3 2 6 12 17 18 14 8 3 1 0 1 1 1 3 4 5 6 6 6 7 8 8 8 8 9 9 9 8 8 7 7 10 16 19 19 19 18 17 18 19 17 15 14 15 15 14 14 14
5 4 5 5 4 4 4 4 5 5 5 5 6 6 6 6 7 7 7 7 7 5 4 4 4 4 3 4 7 8 6 7 6 5 7 8 5 2 4 7 11 17 22 21 17 13 9 6 3 3 4 5 5 5 5 5 5 5 4 5 6 8 9 8 7 6 6 6 6 8 14 18 19 17 17 18 17 16 15 15 16 17 17 17 17
6 6 6 6 4 3 3 4 5 5 5 4 4 5 6 7 8 10 11 11 11 10 9 8 8 10 10 9 10 9 8 8 5 5 8 8 5 3 6 7 7 12 20 25 26 23 19 16 12 10 9 9 8 7 7 7 6 5 5 4 3 4 4 4 4 4 5 6 5 4 7 12 15 16 16 16 16 15 15 16 15 16 16 17 18
7 7 6 5 4 2 2 4 5 5 4 4 4 6 8 9 9 10 11 11 12 12 13 13 13 14 14 14 14 13 12 11 8 9 10 10 9 5 4 5 5 9 14 20 26 27 25 23 21 19 17 16 16 13 12 11 10 9 9 9 7 5 4 5 6 6 6 7 6 3 3 5 7 10 12 13 14 14 15 17 17 17 16 17 19
6 6 6 5 3 3 4 5 6 5 5 5 6 8 9 9 9 9 9 10 10 10 13 14 13 14 14 13 13 13 14 12 10 10 10 11 12 7 4 4 5 7 10 13 17 22 25 24 22 21 20 18 18 18 17 15 14 13 12 13 13 11 9 9 9 9 7 7 8 6 5 4 3 3 7 9 10 12 14 16 17 17 17 17 18
6 6 6 4 3 4 5 7 7 7 7 7 8 8 8 8 8 8 8 9 9 10 12 13 13 12 12 11 12 13 14 13 12 12 11 11 10 6 5 6 7 8 10 13 15 16 18 21 20 19 18 17 16 16 16 16 15 14 13 13 14 13 13 12 12 11 10 9 9 9 8 6 5 3 2 4 4 6 8 9 11 13 13 14 14
5 6 5 4 3 4 5 6 7 7 7 7 8 8 8 8 8 8 9 9 9 10 11 11 12 12 11 12 13 14 14 13 12 13 12 12 12 8 6 5 6 6 6 11 16 16 13 15 18 18 17 16 15 14 14 13 13 11 10 10 11 11 11 11 11 10 10 10 10 10 9 8 6 4 4 4 4 4 6 7 8 9 10 11 12
4 5 5 4 4 4 3 3 4 4 4 5 6 7 7 8 8 9 10 9 9 10 10 10 11 12 12 12 13 15 14 13 13 13 12 13 13 12 9 6 5 3 2 5 9 12 13 14 16 18 17 16 15 14 12 12 12 11 9 9 10 10 10 9 8 8 8 8 8 7 7 7 6 5 5 6 7 7 8 9 10 11 11 12 12
4 6 6 5 4 4 3 2 1 1 1 2 4 5 6 7 7 8 9 8 8 9 9 10 11 12 12 12 13 14 13 12 13 12 12 12 12 13 13 11 8 5 2 2 2 6 11 14 15 16 16 15 14 13 12 13 14 12 11 11 10 10 9 8 8 8 7 7 7 7 6 5 5 5 5 6 6 7 8 9 11 13 14 14 14
5 6 6 6 5 4 4 3 3 2 1 1 1 3 4 5 6 7 7 7 7 9 8 9 11 11 12 12 12 13 12 11 11 10 10 10 10 11 12 13 12 9 5 3 1 4 9 12 14 15 14 14 14 12 12 13 13 13 12 12 13 12 10 9 9 9 9 8 7 7 7 6 6 5 6 6 6 6 6 7 8 10 12 14 14
6 6 7 6 6 6 6 6 5 4 3 2 1 0 1 3 4 5 6 5 6 8 8 9 10 10 11 11 10 10 9 8 9 9 8 9 9 10 11 11 13 13 9 6 3 3 7 10 12 12 13 13 12 12 12 11 11 11 11 12 12 11 10 10 11 11 10 10 9 9 8 8 7 7 6 6 6 7 7 7 7 8 9 10 12
6 7 6 6 6 6 7 8 8 7 6 5 3 2 2 0 2 3 4 3 4 6 7 8 9 8 9 10 9 8 7 7 8 8 8 9 8 9 10 10 11 11 10 10 6 4 6 8 9 11 12 12 12 13 13 12 11 10 10 10 9 8 9 10 11 11 10 10 10 9 9 9 8 8 7 7 7 7 7 7 7 8 8 9 10
7 7 7 7 6 6 7 9 10 10 9 8 6 5 4 3 1 1 2 2 2 3 5 6 7 6 6 7 8 7 6 6 7 7 7 7 7 7 8 8 10 9 9 11 9 6 5 5 8 11 12 12 14 15 15 14 14 13 11 10 9 8 9 10 10 10 10 10 9 9 9 9 8 8 8 8 8 8 7 7 7 7 7 8 8
11 10 9 9 8 8 8 9 10 11 11 10 9 8 6 5 4 3 2 2 2 2 2 4 5 4 3 4 5 5 5 5 6 6 6 6 5 6 7 7 9 10 9 9 8 6 5 5 8 12 13 13 15 16 17 17 16 15 14 12 12 11 10 10 11 11 11 11 10 10 10 9 9 9 9 9 9 9 9 8 8 7 7 7 7
14 13 12 10 10 10 10 10 10 11 12 12 12 11 9 8 6 5 5 4 4 4 3 3 4 3 2 3 3 3 3 4 5 5 5 5 4 5 7 8 8 9 9 9 8 7 7 6 8 13 14 14 16 16 17 17 16 16 16 15 14 13 13 13 12 12 11 11 12 12 11 11 11 11 11 12 11 11 11 11 10 10 9 8 7
14 14 14 14 13 13 12 11 11 11 13 14 14 14 13 11 9 8 7 7 7 6 5 5 5 4 3 3 3 3 3 3 4 5 4 4 4 5 6 7 8 8 9 9 9 8 8 7 9 12 13 14 14 16 16 16 16 16 17 17 16 16 17 16 16 16 14 12 11 12 12 12 13 13 14 14 14 14 14 13 13 13 12 11 11
10 12 13 15 16 15 13 12 13 13 14 15 17 17 17 15 12 11 10 9 9 9 9 8 7 7 6 5 4 4 4 3 3 4 3 3 3 4 5 6 7 7 7 8 9 8 8 9 9 10 12 13 13 15 16 17 18 18 18 19 19 20 21 20 20 20 17 15 14 13 12 13 13 14 15 15 15 15 15 15 15 15 15 15 14
10 12 13 15 16 16 14 14 16 16 16 18 18 20 22 20 15 13 13 11 11 12 12 11 10 10 9 8 7 7 7 6 5 4 3 3 3 2 3 4 5 5 5 6 7 7 8 9 9 9 11 12 13 14 16 18 19 20 22 22 22 23 24 24 24 22 19 17 17 16 16 17 17 17 16 16 15 15 15 15 15 15 15 16 16
16 16 15 13 12 14 16 18 20 20 18 17 17 18 23 24 19 16 15 14 13 14 14 14 13 13 12 11 11 10 10 9 8 7 6 5 3 2 1 1 3 3 4 5 5 6 7 7 8 10 10 11 13 14 15 17 18 20 23 25 26 28 28 28 28 25 20 19 20 21 22 23 23 21 20 18 17 15 15 14 14 14 14 15 16
16 15 15 12 10 14 20 22 22 21 19 19 19 19 22 24 23 18 15 15 15 16 17 17 16 15 14 14 14 13 13 12 11 9 8 6 4 3 2 0 1 2 3 4 4 4 5 6 8 9 10 11 13 14 16 18 18 19 21 22 25 28 30 30 28 24 21 22 23 25 27 28 27 25 23 21 18 17 16 15 14 14 13 13 14
12 13 14 15 16 20 23 22 20 20 20 20 18 16 16 19 19 17 15 15 16 17 18 18 18 18 17 17 16 16 16 15 13 12 9 7 5 4 3 1 2 3 3 3 4 4 5 7 8 10 12 13 14 15 16 17 16 17 18 19 21 24 28 32 28 21 19 23 27 30 31 30 29 27 25 22 20 19 18 17 15 13 13 13 13
11 12 15 16 18 21 20 19 18 18 19 19 16 14 14 15 15 15 15 15 15 16 17 17 18 19 19 20 19 18 18 18 16 13 11 9 7 6 3 1 2 3 4 4 4 4 5 7 8 10 12 13 13 14 15 15 16 16 18 19 21 23 26 29 28 24 21 23 29 34 33 29 27 26 24 22 21 20 19 17 14 12 12 13 12
9 10 12 13 15 17 18 18 17 17 17 17 17 15 13 12 12 12 12 12 12 13 14 15 16 17 18 20 20 20 21 20 17 14 13 12 10 7 5 2 1 2 2 3 3 4 5 6 7 8 10 11 12 13 14 16 17 18 19 20 21 23 23 21 21 23 26 27 30 32 33 29 25 23 23 22 21 19 17 15 12 9 10 11 10
7 8 9 10 11 13 15 16 14 13 13 13 12 10 7 7 7 8 9 10 10 12 13 14 15 16 17 18 19 20 21 21 18 16 15 13 11 8 5 2 2 2 2 2 3 4 6 6 7 7 8 10 12 13 14 16 18 19 21 21 21 22 21 19 18 23 27 27 26 26 30 29 23 21 23 21 18 16 14 13 11 8 9 10 11
7 8 8 8 7 9 11 11 9 8 7 7 6 4 3 3 3 4 5 7 8 10 11 13 15 17 17 17 18 19 20 19 18 17 17 15 13 9 6 4 4 3 3 3 4 5 7 7 7 7 8 10 11 13 14 15 18 20 21 23 23 21 20 20 20 24 25 23 21 21 27 28 23 20 22 20 17 17 15 14 12 9 9 10 12
7 6 5 5 4 5 5 5 5 3 3 3 2 2 2 2 1 2 3 5 7 8 10 11 13 15 15 16 16 17 17 17 17 18 18 17 13 9 7 6 5 4 4 4 5 6 7 7 7 7 8 9 10 12 14 15 16 18 19 21 22 20 20 19 19 22 21 18 18 17 20 23 22 20 22 22 20 19 17 16 14 10 9 9 11
9 8 7 6 5 4 2 0 1 2 2 3 3 3 3 3 2 3 4 5 7 9 10 10 11 12 13 13 14 15 15 16 17 19 19 16 12 9 8 7 7 6 6 6 6 7 7 7 7 7 8 9 11 12 14 15 15 16 16 17 17 18 18 19 20 22 19 17 18 15 13 16 21 22 23 24 22 21 20 18 15 10 7 7 10
8 7 6 5 4 3 2 2 2 2 3 4 4 5 5 4 4 4 4 5 6 8 8 8 8 9 10 10 10 12 13 14 17 19 16 13 10 9 9 9 8 7 6 5 5 5 5 6 7 8 9 11 12 13 13 14 14 14 14 15 15 16 16 18 20 21 19 19 20 15 12 14 18 21 23 25 23 22 22 19 13 7 6 7 10
7 5 4 3 3 3 3 3 3 3 4 4 5 6 6 6 5 5 4 4 4 6 6 6 5 5 5 5 6 8 11 14 18 18 13 11 10 9 9 8 7 5 4 4 5 5 6 7 9 10 11 12 13 13 13 13 13 13 14 14 16 16 16 15 14 15 19 22 18 13 11 14 17 20 22 24 22 21 20 16 9 5 6 9 13
6 5 4 5 4 4 5 7 7 6 5 4 4 5 6 7 6 5 5 4 2 3 4 4 4 3 3 2 3 6 10 14 17 15 12 10 9 8 8 7 5 4 5 5 6 6 7 9 10 11 12 12 12 12 12 12 12 13 14 16 16 17 16 15 14 16 21 19 13 11 13 16 18 19 20 21 20 19 15 8 6 8 12 15 18
4 5 5 3 2 4 7 9 10 9 7 5 4 4 5 6 6 5 5 4 2 1 1 1 1 1 1 2 3 5 8 11 12 11 10 8 7 7 7 6 5 5 6 6 7 8 9 10 11 11 12 12 12 13 13 13 13 13 15 16 17 17 19 19 18 16 13 9 9 15 19 18 17 17 16 16 16 13 9 7 11 16 18 19 19
Wind_Direction
240 244 248 248 238 216 200 194 196 203 210 213 214 213 214 221 243 270 292 284 235 215 212 224 264 249 201 153 138 116 83 122 188 200 200 200 207 223 239 248 244 230 219 207 206 200 193 199 195 191 183 169 166 158 159 176 178 150 126 51 44 48 57 58 64 73 77 84 94 99 98 98 99 99 100 100 97 95 97 96 96 98 99 97 95
246 247 245 245 241 227 209 200 199 205 214 224 229 229 229 238 274 295 301 287 204 205 250 266 298 277 233 191 159 133 77 108 183 206 207 205 213 226 236 247 246 243 242 223 211 208 204 207 202 199 198 187 184 175 164 176 177 168 210 255 356 2 10 32 39 52 68 81 92 100 101 102 104 104 103 103 98 100 105 100 97 102 105 103 99
247 251 247 248 248 241 227 209 206 215 226 240 240 237 241 254 278 288 273 240 197 178 336 332 344 312 235 228 205 165 78 115 180 203 212 209 218 229 234 243 244 245 252 246 228 208 207 217 209 202 206 203 198 193 182 179 175 177 202 222 239 332 337 342 19 23 30 57 80 98 101 102 104 104 106 108 105 105 107 105 102 102 106 106 102
236 242 246 247 241 242 243 226 218 234 251 253 245 239 244 252 259 274 261 226 204 187 26 2 3 8 239 234 248 250 329 114 196 212 224 221 222 230 235 241 241 243 251 257 263 223 206 223 221 209 210 210 205 207 202 186 185 191 198 220 226 266 337 315 348 19 16 18 31 80 99 102 101 106 112 114 111 108 109 113 110 104 106 108 106
227 228 235 234 227 232 242 237 228 233 245 239 236 238 242 243 244 256 247 220 215 207 333 1 0 10 16 264 246 261 288 280 240 230 236 235 231 234 237 242 240 242 249 254 269 250 216 220 231 228 219 211 207 210 209 198 199 194 196 230 226 227 321 313 332 1 13 8 2 11 80 107 107 110 114 119 118 114 119 124 119 112 113 112 108
224 221 227 224 226 226 231 239 228 217 227 230 231 234 236 236 237 241 230 216 212 195 247 356 358 2 8 277 226 228 249 251 244 237 240 241 239 241 242 245 243 240 249 249 256 255 229 223 228 240 240 223 213 212 206 204 211 194 187 221 219 228 262 244 327 325 338 341 345 345 330 146 121 122 118 125 126 121 126 131 131 124 119 116 115
224 224 228 223 228 233 238 242 225 212 222 232 231 228 229 228 224 225 220 213 207 197 235 307 332 340 270 224 207 207 222 226 228 227 230 232 236 244 246 250 251 243 247 248 247 249 237 228 224 234 248 248 225 216 205 203 214 204 194 208 220 242 246 227 236 277 308 309 304 325 319 294 283 154 140 133 132 133 131 133 141 138 128 125 124
232 229 230 230 235 240 240 230 224 227 228 232 233 228 224 220 212 211 213 207 206 217 248 264 246 233 222 214 196 193 203 207 220 225 225 224 229 240 245 252 258 254 250 250 249 252 251 239 226 231 244 253 252 225 204 205 220 216 202 206 222 254 249 230 230 236 263 290 282 292 313 307 301 296 149 144 147 151 147 141 145 149 143 139 132
262 244 235 244 252 253 240 221 222 233 234 234 237 237 222 213 211 203 201 201 198 204 213 212 201 190 178 169 160 170 189 196 205 220 224 224 228 236 242 248 254 257 256 253 250 249 253 252 240 233 238 247 258 259 220 215 230 235 218 210 219 244 248 233 229 231 236 256 265 272 297 303 296 294 284 190 185 174 163 158 155 156 157 159 153
280 260 243 248 254 255 244 229 228 235 241 240 237 241 223 213 219 198 187 194 190 181 175 178 181 178 166 153 144 146 168 184 196 214 223 226 231 237 242 245 247 252 254 255 254 251 251 255 255 247 243 244 247 251 232 219 227 232 237 235 228 237 242 233 229 231 232 237 239 243 280 298 285 274 272 260 220 197 175 167 164 161 163 171 175
275 257 240 245 248 250 241 230 232 237 244 238 223 236 227 213 223 201 187 190 182 171 160 158 170 176 171 164 161 155 157 161 160 175 199 217 229 237 242 243 244 247 249 250 252 254 254 253 255 257 259 259 253 247 236 221 221 228 231 232 236 238 229 223 227 228 230 235 237 234 249 290 282 264 260 261 251 226 199 182 172 167 170 175 184
247 176 159 226 228 232 226 222 232 238 244 238 221 238 243 219 223 224 215 198 169 163 164 158 168 179 182 184 181 179 180 175 163 154 161 179 201 222 235 240 245 248 248 250 253 255 257 256 256 258 262 267 266 259 250 237 224 223 226 227 233 235 222 219 232 238 229 230 236 237 237 251 275 267 250 246 253 242 223 210 196 185 178 177 185
98 97 100 116 145 161 187 210 226 239 246 236 199 210 253 225 214 219 225 210 176 173 178 167 167 175 178 189 197 202 203 204 206 199 187 182 185 194 201 217 244 258 253 252 257 257 258 259 260 261 263 267 270 269 265 259 248 234 228 227 234 239 230 220 229 250 237 225 228 233 235 236 244 259 247 238 242 244 238 230 219 210 195 185 188
99 100 101 103 112 131 166 201 218 247 257 240 182 166 207 209 199 206 221 217 195 189 186 174 174 174 167 170 197 223 220 218 221 222 220 219 220 218 213 217 254 309 289 254 254 260 258 256 261 266 266 266 270 272 271 268 265 260 248 242 243 246 244 230 225 241 251 227 221 226 234 236 234 241 244 235 232 234 238 237 231 228 216 200 197
104 108 105 99 96 105 123 164 195 225 235 234 185 162 201 207 203 219 228 223 200 185 190 194 183 164 140 131 163 223 244 241 224 219 221 226 231 228 227 230 236 268 299 297 256 268 262 248 259 274 271 266 267 269 272 274 272 271 268 264 261 258 257 251 238 237 241 232 220 223 234 240 237 237 238 233 230 230 234 239 236 235 232 224 216
106 114 116 109 100 100 104 146 182 190 177 171 156 158 191 214 234 247 234 227 212 189 191 199 191 173 140 93 90 116 234 270 248 213 216 225 231 231 232 230 223 244 278 288 262 269 283 271 281 291 288 283 281 279 279 281 281 278 275 272 269 268 267 266 262 250 242 237 227 224 234 241 237 235 235 233 231 230 234 242 243 243 244 241 235
109 120 129 125 127 129 127 184 176 164 151 138 136 155 182 214 244 254 242 240 233 211 201 199 198 191 173 145 107 115 216 231 57 185 209 220 226 232 237 234 231 254 266 269 264 264 281 282 280 284 294 305 299 299 294 291 295 291 286 283 279 277 275 271 270 265 255 246 236 229 233 240 236 232 231 231 231 233 237 242 244 247 248 250 248
114 131 133 134 153 151 156 190 168 153 143 136 142 168 198 213 218 217 228 246 234 227 223 216 213 197 178 161 148 165 162 163 161 159 173 166 173 213 228 217 224 261 261 259 271 266 257 261 264 267 278 289 291 298 298 295 301 301 298 299 300 298 292 283 275 270 265 257 247 237 235 238 241 242 237 234 233 234 239 244 247 250 251 253 255
104 115 122 131 136 136 143 147 141 136 122 108 105 110 143 186 191 190 197 218 210 206 222 227 229 210 184 153 134 139 129 133 147 129 124 83 65 64 62 62 69 273 262 246 255 265 266 266 263 268 283 289 287 294 302 306 307 306 305 305 310 312 307 302 293 282 273 265 257 251 247 240 238 242 242 240 238 236 238 242 245 250 253 255 253
92 96 119 132 123 116 136 138 129 123 112 103 96 92 93 117 160 171 176 181 186 204 216 218 213 206 202 181 132 117 104 93 83 84 131 96 61 61 63 63 62 50 3 246 240 246 286 315 282 283 305 308 303 308 322 329 322 316 313 308 304 305 310 313 309 299 288 273 262 260 260 253 245 245 245 242 240 239 240 243 246 249 251 253 249
90 99 129 133 117 108 125 134 129 125 120 108 95 92 90 97 122 142 157 157 151 168 182 174 166 175 209 196 128 93 78 68 66 70 82 92 93 67 59 65 63 59 61 69 73 148 220 32 37 339 337 353 355 349 346 347 344 336 322 311 305 307 315 318 312 307 301 285 263 253 252 254 256 257 256 251 244 240 242 246 249 250 248 248 247
103 121 134 133 121 111 123 134 135 136 132 116 98 92 89 94 104 108 115 118 117 123 122 126 122 92 117 157 121 100 81 65 57 67 79 84 97 94 47 59 63 61 65 70 72 74 81 91 97 74 53 49 32 17 21 25 17 1 334 319 317 319 322 317 312 319 313 298 278 251 246 248 253 259 262 261 255 248 248 251 249 247 247 247 248
119 130 134 131 125 122 138 138 134 135 132 119 102 95 98 104 102 99 99 96 91 90 90 96 101 90 89 101 108 107 99 86 68 69 84 91 99 82 66 73 77 72 69 69 71 73 74 75 77 79 77 74 70 66 68 71 65 54 54 49 7 330 337 340 343 7 359 341 329 296 265 253 250 254 259 260 260 259 258 259 255 249 249 252 253
129 134 134 130 116 107 137 140 138 143 144 138 123 113 114 118 113 104 99 95 91 87 87 93 97 95 92 93 96 97 95 92 84 75 84 106 123 126 117 111 91 81 78 71 68 68 70 71 73 76 78 76 74 75 76 75 72 70 69 61 41 19 27 34 33 29 16 13 19 7 316 291 263 257 260 257 258 263 262 262 261 255 253 257 260
144 142 137 128 105 94 123 130 134 141 139 133 130 128 129 128 125 116 108 104 101 97 95 96 96 95 95 92 91 89 86 83 81 79 83 104 122 137 142 125 104 83 73 69 67 65 65 67 69 71 72 71 70 71 72 73 73 72 70 63 53 45 37 32 36 38 34 35 43 53 51 25 2 284 262 259 258 260 260 262 263 261 259 263 269
157 161 154 142 123 122 127 123 123 126 125 124 128 138 145 144 137 126 116 112 107 102 100 98 96 94 92 92 89 86 85 82 81 82 81 85 96 118 120 92 87 81 66 63 66 63 58 58 61 64 65 64 63 64 66 67 69 71 73 68 59 52 43 33 31 31 31 32 32 37 43 41 38 24 286 274 277 268 267 272 271 270 270 272 278
168 176 173 169 157 145 138 126 121 121 122 123 125 135 144 144 142 132 120 118 113 106 100 97 97 95 92 93 94 93 90 88 85 81 80 77 73 88 122 114 82 71 64 62 60 57 54 54 54 53 52 52 52 53 55 58 58 60 65 61 51 46 41 34 32 29 25 22 19 21 21 19 19 5 324 306 308 298 289 290 285 280 281 279 279
189 192 188 191 191 178 164 139 125 121 122 125 122 126 135 135 138 133 126 125 118 109 105 101 99 99 99 98 98 99 96 92 91 86 84 81 73 74 90 113 122 102 57 56 55 51 50 51 49 44 40 42 44 45 48 51 48 44 46 47 43 42 40 36 36 36 33 25 18 16 11 4 1 348 325 308 298 289 283 282 281 279 277 276 274
218 209 203 206 211 207 210 212 192 123 103 121 119 118 125 128 132 130 127 128 119 108 104 100 99 103 104 102 99 100 100 96 94 91 88 84 77 72 69 75 106 136 115 55 49 48 47 46 45 38 35 39 42 42 46 49 48 46 50 53 51 49 44 41 41 39 41 41 34 33 29 15 6 358 347 335 323 313 299 288 283 280 279 277 274
230 216 210 212 223 234 240 254 266 274 308 352 96 110 113 117 124 127 128 130 121 110 103 98 102 107 106 103 101 100 98 96 92 89 88 83 76 74 70 67 77 92 109 120 93 59 54 47 43 36 32 38 43 45 47 48 48 47 52 58 57 53 48 47 50 50 48 47 45 43 41 37 28 17 10 4 358 352 340 323 306 294 287 282 277
234 224 214 213 221 236 246 253 258 259 264 285 305 307 113 111 119 124 129 137 128 116 110 103 103 108 109 107 106 103 96 91 90 86 83 83 78 77 77 73 71 73 86 107 108 68 64 53 43 37 32 34 40 46 48 45 42 40 42 47 48 45 42 42 43 45 46 44 42 40 37 37 34 26 19 13 8 4 359 353 343 328 314 300 285
236 231 222 220 223 234 246 250 253 256 256 260 269 270 268 222 130 124 122 132 138 127 120 115 108 106 108 109 108 107 106 99 94 92 90 90 87 84 81 78 77 74 77 92 105 101 79 58 41 38 34 31 33 38 42 41 38 34 30 31 31 25 25 28 28 29 31 31 31 31 29 29 28 25 21 15 11 7 0 355 352 347 340 330 315
232 235 231 231 233 244 255 257 258 257 256 256 257 257 260 262 246 178 138 131 146 143 137 137 130 115 107 110 108 106 113 116 110 106 105 101 95 90 83 77 80 79 75 89 106 111 95 68 41 37 35 31 31 30 30 30 31 28 23 20 18 12 10 8 5 4 6 8 9 11 11 10 10 9 7 6 4 4 2 358 353 349 348 346 340
227 230 232 233 236 243 250 256 260 259 258 259 258 259 257 255 255 252 233 207 199 188 171 169 163 147 128 124 117 105 107 115 116 116 113 110 102 91 81 71 73 74 70 82 101 104 97 79 45 39 36 31 29 28 24 22 22 21 20 18 17 14 8 2 356 349 345 344 343 344 344 343 344 343 343 342 343 344 345 346 346 345 345 346 346
230 231 235 236 237 240 243 248 253 256 260 262 263 264 260 256 256 255 254 248 240 237 227 210 203 200 183 163 152 130 119 118 119 120 116 107 96 83 76 66 64 66 61 65 81 88 86 74 44 37 34 29 26 25 22 20 18 17 15 16 17 16 12 7 1 354 346 339 333 331 331 329 329 328 327 325 324 323 323 325 327 328 329 330 330
236 238 241 242 244 248 252 255 257 260 263 267 270 268 261 259 261 258 259 262 260 258 253 240 233 237 235 214 201 185 167 151 132 126 123 109 90 73 70 61 51 53 53 52 59 70 78 74 51 37 32 29 25 20 16 14 14 14 14 12 10 10 9 8 5 0 355 349 343 336 333 331 330 328 326 324 320 317 313 310 309 310 312 312 311
251 257 256 254 251 251 255 260 263 266 269 273 280 283 274 264 262 263 262 263 267 268 265 261 253 249 250 244 237 232 221 203 171 152 142 126 105 78 68 59 45 42 44 45 49 57 65 68 58 40 30 27 23 17 11 8 5 5 6 6 6 5 2 1 2 1 356 353 350 346 341 340 338 335 332 329 325 320 315 311 306 301 299 298 298
251 263 267 264 258 255 257 262 264 267 273 275 281 288 282 271 264 265 264 263 268 270 268 267 264 261 261 257 253 252 249 242 226 208 193 176 148 106 77 59 43 35 37 44 47 49 54 59 54 40 29 23 20 17 12 7 4 1 359 358 358 359 356 355 356 357 355 350 347 346 343 341 340 339 337 334 331 326 321 317 312 305 299 294 291
226 238 248 258 264 262 264 267 267 270 275 275 274 276 274 270 266 267 267 266 268 268 267 266 264 264 266 262 258 259 260 257 248 239 228 213 191 156 114 53 35 25 30 40 41 38 42 44 38 31 27 22 16 14 11 7 5 3 0 356 352 351 351 351 350 350 350 347 343 341 339 337 336 336 336 335 335 331 327 325 320 315 308 298 290
222 233 243 253 263 266 268 268 266 265 269 273 273 270 269 269 270 273 275 274 273 270 267 264 261 261 263 263 260 260 262 262 258 255 247 234 222 207 202 192 13 9 23 30 24 22 23 23 19 15 14 12 10 7 5 6 5 2 1 356 349 346 345 345 345 347 345 342 340 336 334 334 334 334 334 335 335 334 332 332 330 325 317 305 296
234 244 248 253 257 260 264 263 258 259 266 272 274 271 268 270 273 278 282 279 277 275 271 268 264 259 259 261 261 260 261 260 258 258 254 249 249 242 230 251 347 1 9 6 2 5 3 4 3 357 354 358 3 2 1 3 3 356 352 350 345 343 340 339 342 345 342 337 335 331 331 335 334 333 335 336 336 337 335 335 336 332 323 312 305
239 246 247 250 250 250 253 254 255 262 266 270 273 272 270 272 276 279 280 280 280 279 277 275 269 263 260 260 259 259 257 252 250 251 246 241 245 243 236 263 357 2 357 344 340 341 345 351 351 348 346 348 353 355 353 353 350 345 345 345 342 340 340 339 338 338 337 335 334 331 330 335 336 334 336 339 339 338 336 335 338 336 329 322 315
246 249 250 250 247 246 249 255 260 263 263 264 268 269 268 269 270 272 275 279 281 280 280 279 277 273 269 264 259 256 255 249 243 238 232 232 234 228 219 234 320 336 333 327 319 315 323 332 334 337 337 335 339 343 342 340 339 337 338 338 337 337 339 338 331 327 329 333 334 330 328 333 339 337 336 338 339 340 339 336 337 335 331 329 322
251 250 252 255 251 247 249 253 257 259 259 258 256 254 254 256 259 265 268 269 270 271 271 273 275 276 275 271 264 260 260 254 240 229 223 221 218 213 213 234 248 256 280 292 292 291 296 303 311 320 323 322 327 331 332 333 331 330 330 330 331 331 330 326 317 314 323 332 336 331 326 331 341 338 334 338 343 343 341 336 332 324 324 326 321
227 231 239 244 239 231 232 238 243 245 245 238 227 225 239 247 253 264 269 270 269 267 267 267 268 269 271 272 269 267 265 255 238 227 220 211 204 206 219 225 222 235 266 282 284 278 277 283 295 305 309 311 316 320 323 324 323 323 323 323 324 324 321 319 313 314 323 334 339 331 323 328 339 338 333 339 344 342 338 334 329 316 310 316 316
179 183 184 181 178 186 203 218 226 229 230 230 230 231 222 216 252 292 302 297 285 279 275 270 267 267 266 267 268 267 264 250 232 220 211 204 203 214 226 224 224 235 249 262 270 267 265 271 283 291 297 302 307 311 313 314 315 317 317 317 319 319 317 314 312 315 322 331 340 333 317 323 337 338 332 335 338 336 334 330 326 315 302 308 316
136 131 123 116 110 106 101 132 236 243 252 253 253 244 225 225 268 305 318 311 298 291 286 279 273 270 267 268 268 266 262 248 228 214 206 203 208 219 221 221 228 235 241 255 263 261 262 269 280 289 297 302 305 306 307 309 311 312 312 312 313 314 313 311 311 315 318 325 336 330 302 313 335 335 328 331 334 331 330 329 326 315 298 304 317
133 127 120 110 92 71 47 13 334 292 270 255 248 247 240 240 260 284 304 315 311 302 297 291 282 273 271 275 272 265 259 242 217 204 201 204 211 217 219 220 225 231 242 258 262 262 269 278 289 299 302 304 305 305 307 310 311 309 307 307 310 312 311 311 312 313 316 323 330 323 294 305 330 330 323 326 329 325 326 330 328 314 302 313 322
137 133 129 121 101 66 33 7 343 316 293 273 258 257 252 244 249 265 280 306 320 313 310 311 305 294 282 276 268 257 243 220 201 194 198 207 212 214 215 215 221 236 256 274 277 281 291 296 302 306 305 305 306 308 312 314 312 309 305 304 310 313 310 309 309 308 313 319 326 324 302 304 322 325 320 320 321 318 321 330 338 326 313 312 315
142 136 135 126 104 62 36 20 6 350 327 300 277 270 262 250 246 253 264 281 307 316 314 316 321 324 306 264 248 242 224 205 196 197 202 208 211 213 218 225 243 267 273 278 285 290 297 300 303 303 303 305 307 309 313 314 313 312 306 304 308 308 304 301 298 302 309 315 324 328 313 307 317 324 320 317 315 311 313 325 333 315 307 306 309
158 154 149 135 84 32 21 14 7 359 345 321 297 286 273 255 246 244 249 256 253 226 245 247 216 198 190 171 169 193 195 189 190 197 202 210 222 230 241 252 260 262 265 273 283 292 297 300 302 304 304 306 307 308 308 308 309 308 303 302 305 304 300 297 296 301 306 306 316 322 316 309 314 320 320 319 316 310 305 300 302 305 307 308 310